START_TIME,STEP,MOV.,AL01,t_acc.,AL02,t_acc.,E37,t_acc.,H21,t_acc.
1979-08-03 12:00:33.040 ,0,0,0.,24.0,0.,24.0,0.,24.0,0.,24.0
1979-08-03 12:00:57.040 ,1,1,0.,24.0,0.,24.0,0.,24.0,0.,24.0
1979-08-03 12:01:21.040 ,1,0,0.,24.0,0.,24.0,1.,24.0,0.,24.0
1979-08-03 12:01:45.040 ,2,1,0.,24.0,0.,24.0,0.,24.0,0.,24.0
1979-08-03 12:02:09.040 ,0,1,0.,24.0,0.,24.0,0.,24.0,0.,24.0
1979-08-03 12:02:33.040 ,3,1,0.,24.0,0.,24.0,0.,24.0,0.,24.0
1979-08-03 12:02:57.040 ,3,0,0.,24.0,0.,24.0,0.,24.0,0.,24.0
1979-08-03 12:03:21.040 ,4,1,0.,24.0,0.,24.0,0.,24.0,0.,24.0
1979-08-03 12:03:45.040 ,4,0,0.,24.0,0.,24.0,0.,24.0,0.,24.0
1979-08-03 12:04:09.040 ,5,1,0.,24.0,0.,24.0,0.,24.0,0.,24.0
1979-08-03 12:04:33.040 ,5,0,0.,24.0,0.,24.0,0.,24.0,0.,24.0
1979-08-03 12:04:57.040 ,6,1,0.,24.0,0.,24.0,1.,24.0,0.,24.0
1979-08-03 12:05:21.040 ,6,0,0.,24.0,0.,24.0,0.,24.0,0.,24.0
1979-08-03 12:05:45.040 ,7,1,8.,24.0,0.,24.0,1.,24.0,0.,24.0
1979-08-03 12:06:09.040 ,7,0,33.,24.0,0.,24.0,1.,24.0,0.,24.0
1979-08-03 12:06:33.040 ,7,1,24.,24.0,0.,24.0,0.,24.0,0.,24.0
1979-08-03 12:06:57.040 ,7,0,35.,24.0,0.,24.0,0.,24.0,0.,24.0
1979-08-03 12:07:21.040 ,6,1,29.,24.0,0.,24.0,0.,24.0,0.,24.0
1979-08-03 12:07:45.040 ,6,0,0.,24.0,0.,24.0,1.,24.0,0.,24.0
1979-08-03 12:08:09.040 ,5,1,0.,24.0,0.,24.0,0.,24.0,0.,24.0
1979-08-03 12:08:33.040 ,5,0,0.,24.0,0.,24.0,0.,24.0,0.,24.0
1979-08-03 12:08:57.040 ,4,1,0.,24.0,0.,24.0,1.,24.0,0.,24.0
1979-08-03 12:09:21.040 ,4,0,0.,24.0,0.,24.0,0.,24.0,0.,24.0
1979-08-03 12:09:45.040 ,3,1,0.,24.0,0.,24.0,0.,24.0,0.,24.0
1979-08-03 12:10:09.040 ,3,0,1.,24.0,0.,24.0,0.,24.0,0.,24.0
1979-08-03 12:10:33.040 ,2,1,0.,24.0,0.,24.0,0.,24.0,0.,24.0
1979-08-03 12:10:57.040 ,2,0,0.,24.0,0.,24.0,0.,24.0,0.,24.0
1979-08-03 12:11:21.040 ,1,1,0.,24.0,0.,24.0,0.,24.0,0.,24.0
1979-08-03 12:11:45.040 ,1,0,1.,24.0,0.,24.0,0.,24.0,0.,24.0
1979-08-03 12:12:09.040 ,0,1,0.,24.0,0.,24.0,0.,24.0,0.,24.0
1979-08-03 12:12:33.040 ,0,0,0.,24.0,0.,24.0,0.,24.0,0.,24.0
1979-08-03 12:12:57.040 ,0,1,0.,24.0,0.,24.0,0.,24.0,0.,24.0
1979-08-03 12:13:21.040 ,0,0,0.,24.0,0.,24.0,0.,24.0,0.,24.0
1979-08-03 12:13:45.040 ,1,1,0.,24.0,0.,24.0,2.,24.0,0.,24.0
1979-08-03 12:14:09.040 ,1,0,0.,24.0,0.,24.0,2.,24.0,0.,24.0
1979-08-03 12:14:33.040 ,2,1,0.,24.0,0.,24.0,0.,24.0,0.,24.0
1979-08-03 12:14:57.040 ,2,0,0.,24.0,0.,24.0,0.,24.0,0.,24.0
1979-08-03 12:15:21.040 ,3,1,0.,24.0,0.,24.0,0.,24.0,0.,24.0
1979-08-03 12:15:45.040 ,3,0,0.,24.0,0.,24.0,0.,24.0,0.,24.0
1979-08-03 12:16:09.040 ,4,1,1.,24.0,0.,24.0,0.,24.0,0.,24.0
1979-08-03 12:16:33.040 ,4,0,0.,24.0,0.,24.0,0.,24.0,0.,24.0
1979-08-03 12:16:57.040 ,5,1,0.,24.0,0.,24.0,0.,24.0,0.,24.0
1979-08-03 12:17:21.040 ,5,0,0.,24.0,0.,24.0,1.,24.0,0.,24.0
1979-08-03 12:17:45.040 ,6,1,0.,24.0,0.,24.0,0.,24.0,0.,24.0
1979-08-03 12:18:09.040 ,6,0,0.,24.0,0.,24.0,0.,24.0,0.,24.0
1979-08-03 12:18:33.040 ,7,0,6.,24.0,1.,24.0,2.,24.0,0.,24.0
1979-08-03 12:18:57.040 ,7,0,24.,24.0,0.,24.0,1.,24.0,0.,24.0
1979-08-03 12:19:21.040 ,5,1,21.,24.0,0.,24.0,0.,24.0,0.,24.0
1979-08-03 12:19:45.040 ,1,1,0.,24.0,0.,24.0,0.,24.0,0.,24.0
1979-08-03 12:20:09.040 ,2,1,0.,24.0,0.,24.0,0.,24.0,0.,24.0
1979-08-03 12:20:33.040 ,6,1,0.,24.0,0.,24.0,0.,24.0,0.,24.0
1979-08-03 12:20:57.040 ,5,1,9.,24.0,0.,24.0,0.,24.0,0.,24.0
1979-08-03 12:21:21.040 ,1,1,0.,24.0,0.,24.0,0.,24.0,0.,24.0
1979-08-03 12:21:45.040 ,2,1,0.,24.0,0.,24.0,1.,24.0,0.,24.0
1979-08-03 12:22:09.040 ,6,1,0.,24.0,0.,24.0,0.,24.0,0.,24.0
1979-08-03 12:22:33.040 ,5,1,15.,24.0,0.,24.0,0.,24.0,0.,24.0
1979-08-03 12:22:57.040 ,1,1,0.,24.0,0.,24.0,0.,24.0,0.,24.0
1979-08-03 12:23:21.040 ,2,1,0.,24.0,0.,24.0,0.,24.0,0.,24.0
1979-08-03 12:23:45.040 ,6,1,0.,24.0,0.,24.0,0.,24.0,0.,24.0
1979-08-03 12:24:09.040 ,5,1,16.,24.0,0.,24.0,0.,24.0,0.,24.0
1979-08-03 12:24:33.040 ,1,1,0.,24.0,0.,24.0,0.,24.0,0.,24.0
1979-08-03 12:24:57.040 ,2,1,0.,24.0,1.,24.0,1.,24.0,0.,24.0
1979-08-03 12:25:21.040 ,6,1,0.,24.0,0.,24.0,0.,24.0,0.,24.0
1979-08-03 12:25:45.040 ,5,1,14.,24.0,0.,24.0,0.,24.0,0.,24.0
1979-08-03 12:26:09.040 ,1,1,0.,24.0,0.,24.0,0.,24.0,0.,24.0
1979-08-03 12:26:33.040 ,2,1,0.,24.0,0.,24.0,1.,24.0,0.,24.0
1979-08-03 12:26:57.040 ,6,1,0.,24.0,0.,24.0,0.,24.0,0.,24.0
1979-08-03 12:27:21.040 ,5,1,14.,24.0,0.,24.0,0.,24.0,0.,24.0
1979-08-03 12:27:45.040 ,1,1,0.,24.0,0.,24.0,0.,24.0,0.,24.0
1979-08-03 12:28:09.040 ,2,1,0.,24.0,0.,24.0,1.,24.0,0.,24.0
1979-08-03 12:28:33.040 ,6,1,0.,24.0,0.,24.0,0.,24.0,0.,24.0
1979-08-03 12:28:57.040 ,5,1,15.,24.0,0.,24.0,1.,24.0,0.,24.0
1979-08-03 12:29:21.040 ,1,1,0.,24.0,0.,24.0,0.,24.0,0.,24.0
1979-08-03 12:29:45.040 ,0,0,1.,24.0,0.,24.0,0.,24.0,0.,24.0
1979-08-03 12:30:09.040 ,0,0,0.,24.0,0.,24.0,0.,24.0,0.,24.0
1979-08-03 12:30:33.040 ,5,1,12.,24.0,0.,24.0,1.,24.0,0.,24.0
1979-08-03 12:30:57.040 ,5,0,0.,24.0,0.,24.0,0.,24.0,0.,24.0
1979-08-03 12:31:21.040 ,4,1,0.,24.0,0.,24.0,0.,24.0,0.,24.0
1979-08-03 12:31:45.040 ,4,0,0.,24.0,0.,24.0,0.,24.0,0.,24.0
1979-08-03 12:32:09.040 ,3,1,0.,24.0,0.,24.0,0.,24.0,0.,24.0
1979-08-03 12:32:33.040 ,3,0,0.,24.0,1.,24.0,0.,24.0,0.,24.0
1979-08-03 12:32:57.040 ,2,1,0.,24.0,0.,24.0,0.,24.0,0.,24.0
1979-08-03 12:33:21.040 ,0,0,0.,24.0,0.,24.0,0.,24.0,0.,24.0
1979-08-03 12:34:08.440 ,0,0,,0,,0,,0,,0
1979-08-03 12:34:09.040 ,0,0,0.,24.0,0.,24.0,2.,24.0,0.,24.0
1979-08-03 12:34:33.040 ,0,1,0.,24.0,0.,24.0,0.,24.0,0.,24.0
1979-08-03 12:34:57.040 ,0,0,1.,24.0,0.,24.0,0.,24.0,0.,24.0
1979-08-03 12:35:21.040 ,0,1,0.,24.0,0.,24.0,0.,24.0,0.,24.0
1979-08-03 12:35:45.040 ,0,0,0.,24.0,0.,24.0,1.,24.0,0.,24.0
1979-08-03 12:36:09.040 ,1,1,0.,24.0,0.,24.0,0.,24.0,0.,24.0
1979-08-03 12:36:33.040 ,1,0,0.,24.0,0.,24.0,0.,24.0,0.,24.0
1979-08-03 12:36:57.040 ,2,1,0.,24.0,0.,24.0,0.,24.0,0.,24.0
1979-08-03 12:37:21.040 ,2,0,0.,24.0,0.,24.0,0.,24.0,0.,24.0
1979-08-03 12:37:45.040 ,3,1,0.,24.0,0.,24.0,0.,24.0,0.,24.0
1979-08-03 12:38:09.040 ,3,0,0.,24.0,0.,24.0,0.,24.0,0.,24.0
1979-08-03 12:38:33.040 ,4,1,0.,24.0,0.,24.0,0.,24.0,0.,24.0
1979-08-03 12:38:57.040 ,4,0,0.,24.0,0.,24.0,0.,24.0,0.,24.0
1979-08-03 12:39:21.040 ,5,1,0.,24.0,1.,24.0,0.,24.0,0.,24.0
1979-08-03 12:39:45.040 ,5,0,0.,24.0,0.,24.0,0.,24.0,0.,24.0
1979-08-03 12:40:09.040 ,6,1,0.,24.0,0.,24.0,0.,24.0,0.,24.0
1979-08-03 12:40:33.040 ,6,0,0.,24.0,0.,24.0,0.,24.0,0.,24.0
1979-08-03 12:40:57.040 ,7,1,2.,24.0,0.,24.0,0.,24.0,0.,24.0
1979-08-03 12:41:21.040 ,7,0,42.,24.0,0.,24.0,1.,24.0,0.,24.0
1979-08-03 12:41:45.040 ,7,1,23.,24.0,1.,24.0,1.,24.0,0.,24.0
1979-08-03 12:42:09.040 ,7,0,28.,24.0,0.,24.0,0.,24.0,0.,24.0
1979-08-03 12:42:33.040 ,6,1,25.,24.0,0.,24.0,0.,24.0,0.,24.0
1979-08-03 12:42:57.040 ,6,0,0.,24.0,0.,24.0,0.,24.0,0.,24.0
1979-08-03 12:43:21.040 ,5,1,0.,24.0,0.,24.0,0.,24.0,0.,24.0
1979-08-03 12:43:45.040 ,5,0,0.,24.0,0.,24.0,0.,24.0,0.,24.0
1979-08-03 12:44:09.040 ,4,1,0.,24.0,0.,24.0,1.,24.0,0.,24.0
1979-08-03 12:44:33.040 ,4,0,0.,24.0,0.,24.0,0.,24.0,0.,24.0
1979-08-03 12:44:57.040 ,3,1,0.,24.0,0.,24.0,0.,24.0,0.,24.0
1979-08-03 12:45:21.040 ,3,0,0.,24.0,0.,24.0,2.,24.0,0.,24.0
1979-08-03 12:45:45.040 ,2,1,1.,24.0,0.,24.0,2.,24.0,0.,24.0
1979-08-03 12:46:09.040 ,2,0,0.,24.0,0.,24.0,0.,24.0,0.,24.0
1979-08-03 12:46:33.040 ,1,1,0.,24.0,0.,24.0,0.,24.0,0.,24.0
1979-08-03 12:46:57.040 ,1,0,0.,24.0,0.,24.0,0.,24.0,0.,24.0
1979-08-03 12:47:21.040 ,0,1,0.,24.0,0.,24.0,1.,24.0,0.,24.0
1979-08-03 12:47:45.040 ,0,0,1.,24.0,0.,24.0,0.,24.0,0.,24.0
1979-08-03 12:48:09.040 ,0,1,0.,24.0,0.,24.0,0.,24.0,0.,24.0
1979-08-03 12:48:33.040 ,0,0,0.,24.0,0.,24.0,0.,24.0,0.,24.0
1979-08-03 12:48:57.040 ,1,1,0.,24.0,0.,24.0,0.,24.0,0.,24.0
1979-08-03 12:49:21.040 ,1,0,0.,24.0,0.,24.0,2.,24.0,0.,24.0
1979-08-03 12:49:45.040 ,2,1,0.,24.0,0.,24.0,0.,24.0,0.,24.0
1979-08-03 12:50:09.040 ,2,0,0.,24.0,0.,24.0,0.,24.0,0.,24.0
1979-08-03 12:50:33.040 ,3,1,0.,24.0,0.,24.0,1.,24.0,0.,24.0
1979-08-03 12:50:57.040 ,3,0,0.,24.0,0.,24.0,0.,24.0,0.,24.0
1979-08-03 12:51:21.040 ,4,1,0.,24.0,0.,24.0,1.,24.0,0.,24.0
1979-08-03 12:51:45.040 ,4,0,0.,24.0,0.,24.0,0.,24.0,0.,24.0
1979-08-03 12:52:09.040 ,5,1,0.,24.0,0.,24.0,0.,24.0,0.,24.0
1979-08-03 12:52:33.040 ,5,0,0.,24.0,0.,24.0,0.,24.0,0.,24.0
1979-08-03 12:52:57.040 ,6,1,0.,24.0,0.,24.0,0.,24.0,0.,24.0
1979-08-03 12:53:21.040 ,6,0,0.,24.0,0.,24.0,0.,24.0,0.,24.0
1979-08-03 12:53:45.040 ,7,1,10.,24.0,0.,24.0,0.,24.0,0.,24.0
1979-08-03 12:54:09.040 ,7,0,29.,24.0,0.,24.0,0.,24.0,0.,24.0
1979-08-03 12:54:33.040 ,7,1,41.,24.0,0.,24.0,0.,24.0,0.,24.0
1979-08-03 12:54:57.040 ,7,0,17.,24.0,0.,24.0,0.,24.0,0.,24.0
1979-08-03 12:55:21.040 ,6,1,24.,24.0,1.,24.0,2.,24.0,0.,24.0
1979-08-03 12:55:45.040 ,6,0,0.,24.0,0.,24.0,0.,24.0,0.,24.0
1979-08-03 12:56:09.040 ,5,1,0.,24.0,0.,24.0,0.,24.0,0.,24.0
1979-08-03 12:56:33.040 ,5,0,0.,24.0,0.,24.0,0.,24.0,0.,24.0
1979-08-03 12:56:57.040 ,4,1,0.,24.0,0.,24.0,1.,24.0,0.,24.0
1979-08-03 12:57:21.040 ,4,0,0.,24.0,0.,24.0,0.,24.0,0.,24.0
1979-08-03 12:57:45.040 ,3,1,0.,24.0,0.,24.0,1.,24.0,0.,24.0
1979-08-03 12:58:09.040 ,3,0,0.,24.0,0.,24.0,0.,24.0,0.,24.0
1979-08-03 12:58:33.040 ,2,1,0.,24.0,0.,24.0,0.,24.0,0.,24.0
1979-08-03 12:58:57.040 ,2,0,0.,24.0,0.,24.0,0.,24.0,0.,24.0
1979-08-03 12:59:21.040 ,1,1,0.,24.0,0.,24.0,0.,24.0,0.,24.0
1979-08-03 12:59:45.040 ,1,0,0.,24.0,0.,24.0,3.,24.0,0.,24.0
1979-08-03 13:00:09.040 ,0,1,0.,24.0,0.,24.0,0.,24.0,0.,24.0
1979-08-03 13:00:33.040 ,0,0,0.,24.0,0.,24.0,0.,24.0,0.,24.0
1979-08-03 13:00:57.040 ,0,1,0.,24.0,0.,24.0,0.,24.0,0.,24.0
1979-08-03 13:01:21.040 ,0,0,0.,24.0,0.,24.0,0.,24.0,0.,24.0
1979-08-03 13:01:45.040 ,1,1,0.,24.0,1.,24.0,0.,24.0,0.,24.0
1979-08-03 13:02:09.040 ,1,0,0.,24.0,0.,24.0,0.,24.0,0.,24.0
1979-08-03 13:02:33.040 ,2,1,0.,24.0,0.,24.0,0.,24.0,0.,24.0
1979-08-03 13:02:57.040 ,2,0,0.,24.0,0.,24.0,0.,24.0,0.,24.0
1979-08-03 13:03:21.040 ,3,1,0.,24.0,0.,24.0,0.,24.0,0.,24.0
1979-08-03 13:03:45.040 ,3,0,0.,24.0,0.,24.0,0.,24.0,0.,24.0
1979-08-03 13:04:09.040 ,4,1,0.,24.0,0.,24.0,0.,24.0,0.,24.0
1979-08-03 13:04:33.040 ,4,0,0.,24.0,1.,24.0,0.,24.0,0.,24.0
1979-08-03 13:04:57.040 ,5,1,0.,24.0,0.,24.0,0.,24.0,0.,24.0
1979-08-03 13:05:21.040 ,5,0,0.,24.0,0.,24.0,2.,24.0,0.,24.0
1979-08-03 13:05:45.040 ,6,1,1.,24.0,0.,24.0,0.,24.0,0.,24.0
1979-08-03 13:06:09.040 ,6,0,0.,24.0,0.,24.0,0.,24.0,0.,24.0
1979-08-03 13:06:33.040 ,7,0,7.,24.0,1.,24.0,0.,24.0,0.,24.0
1979-08-03 13:06:57.040 ,7,0,31.,24.0,0.,24.0,0.,24.0,0.,24.0
1979-08-03 13:07:21.040 ,5,1,7.,24.0,0.,24.0,0.,24.0,0.,24.0
1979-08-03 13:07:45.040 ,1,1,0.,24.0,0.,24.0,0.,24.0,0.,24.0
1979-08-03 13:08:09.040 ,2,1,0.,24.0,0.,24.0,0.,24.0,0.,24.0
1979-08-03 13:08:33.040 ,6,1,,0,,0,,0,,0
1979-08-03 13:08:57.040 ,5,1,20.,24.0,0.,24.0,0.,24.0,0.,24.0
1979-08-03 13:09:21.040 ,1,1,0.,24.0,0.,24.0,0.,24.0,0.,24.0
1979-08-03 13:09:45.040 ,2,1,0.,24.0,0.,24.0,0.,24.0,0.,24.0
1979-08-03 13:10:09.040 ,6,1,1.,24.0,0.,24.0,0.,24.0,0.,24.0
1979-08-03 13:10:33.040 ,5,1,11.,24.0,0.,24.0,1.,24.0,0.,24.0
1979-08-03 13:10:57.040 ,1,1,0.,24.0,0.,24.0,0.,24.0,0.,24.0
1979-08-03 13:11:21.040 ,2,1,0.,24.0,0.,24.0,0.,24.0,0.,24.0
1979-08-03 13:11:45.040 ,6,1,0.,24.0,0.,24.0,0.,24.0,0.,24.0
1979-08-03 13:12:09.040 ,5,1,11.,24.0,0.,24.0,1.,24.0,0.,24.0
1979-08-03 13:12:33.040 ,1,1,0.,24.0,0.,24.0,0.,24.0,0.,24.0
1979-08-03 13:12:57.040 ,2,1,0.,24.0,0.,24.0,0.,24.0,0.,24.0
1979-08-03 13:13:21.040 ,6,1,0.,24.0,0.,24.0,0.,24.0,0.,24.0
1979-08-03 13:13:45.040 ,5,1,17.,24.0,0.,24.0,1.,24.0,0.,24.0
1979-08-03 13:14:09.040 ,1,1,0.,24.0,0.,24.0,1.,24.0,0.,24.0
1979-08-03 13:14:33.040 ,2,1,0.,24.0,0.,24.0,0.,24.0,0.,24.0
1979-08-03 13:14:57.040 ,6,1,0.,24.0,0.,24.0,0.,24.0,0.,24.0
1979-08-03 13:15:21.040 ,5,1,9.,24.0,0.,24.0,0.,24.0,0.,24.0
1979-08-03 13:15:45.040 ,1,1,0.,24.0,0.,24.0,0.,24.0,0.,24.0
1979-08-03 13:16:09.040 ,2,1,0.,24.0,0.,24.0,0.,24.0,0.,24.0
1979-08-03 13:16:33.040 ,6,1,0.,24.0,0.,24.0,0.,24.0,0.,24.0
1979-08-03 13:16:57.040 ,5,1,16.,24.0,0.,24.0,0.,24.0,0.,24.0
1979-08-03 13:17:21.040 ,1,1,0.,24.0,0.,24.0,0.,24.0,0.,24.0
1979-08-03 13:17:45.040 ,0,0,0.,24.0,0.,24.0,0.,24.0,0.,24.0
1979-08-03 13:18:09.040 ,0,0,1.,24.0,0.,24.0,0.,24.0,0.,24.0
1979-08-03 13:18:33.040 ,5,1,11.,24.0,0.,24.0,1.,24.0,0.,24.0
1979-08-03 13:18:57.040 ,5,0,0.,24.0,0.,24.0,0.,24.0,0.,24.0
1979-08-03 13:19:21.040 ,4,1,0.,24.0,1.,24.0,1.,24.0,0.,24.0
1979-08-03 13:19:45.040 ,4,0,0.,24.0,0.,24.0,0.,24.0,0.,24.0
1979-08-03 13:20:09.040 ,0,0,0.,24.0,0.,24.0,0.,24.0,0.,24.0
1979-08-03 13:20:33.040 ,0,0,0.,24.0,0.,24.0,0.,24.0,0.,24.0
1979-08-03 13:20:57.040 ,2,1,0.,24.0,0.,24.0,0.,24.0,0.,24.0
1979-08-03 13:21:21.040 ,2,0,0.,24.0,0.,24.0,0.,24.0,0.,24.0
1979-08-03 13:21:45.040 ,1,1,0.,24.0,0.,24.0,0.,24.0,0.,24.0
1979-08-03 13:22:09.040 ,1,0,0.,24.0,0.,24.0,0.,24.0,0.,24.0
1979-08-03 13:22:33.040 ,0,1,1.,24.0,0.,24.0,0.,24.0,0.,24.0
1979-08-03 13:22:57.040 ,0,0,0.,24.0,0.,24.0,1.,24.0,0.,24.0
1979-08-03 13:23:21.040 ,0,1,0.,24.0,0.,24.0,0.,24.0,0.,24.0
1979-08-03 13:23:45.040 ,0,0,1.,24.0,0.,24.0,2.,24.0,0.,24.0
1979-08-03 13:24:09.040 ,1,1,0.,24.0,0.,24.0,0.,24.0,0.,24.0
1979-08-03 13:24:33.040 ,1,0,0.,24.0,0.,24.0,0.,24.0,0.,24.0
1979-08-03 13:24:57.040 ,2,1,1.,24.0,0.,24.0,0.,24.0,0.,24.0
1979-08-03 13:25:21.040 ,2,0,0.,24.0,0.,24.0,0.,24.0,0.,24.0
1979-08-03 13:25:45.040 ,3,1,0.,24.0,0.,24.0,0.,24.0,0.,24.0
1979-08-03 13:26:09.040 ,3,0,1.,24.0,0.,24.0,0.,24.0,0.,24.0
1979-08-03 13:26:33.040 ,4,1,0.,24.0,0.,24.0,0.,24.0,0.,24.0
1979-08-03 13:26:57.040 ,4,0,0.,24.0,0.,24.0,1.,24.0,0.,24.0
1979-08-03 13:27:21.040 ,5,1,0.,24.0,0.,24.0,0.,24.0,0.,24.0
1979-08-03 13:27:45.040 ,5,0,0.,24.0,0.,24.0,0.,24.0,0.,24.0
1979-08-03 13:28:09.040 ,6,1,0.,24.0,0.,24.0,1.,24.0,0.,24.0
1979-08-03 13:28:33.040 ,6,0,0.,24.0,0.,24.0,3.,24.0,0.,24.0
1979-08-03 13:28:57.040 ,7,1,11.,24.0,0.,24.0,1.,24.0,0.,24.0
1979-08-03 13:29:21.040 ,7,0,30.,24.0,0.,24.0,0.,24.0,0.,24.0
1979-08-03 13:29:45.040 ,7,1,31.,24.0,0.,24.0,1.,24.0,0.,24.0
1979-08-03 13:30:09.040 ,7,0,35.,24.0,0.,24.0,0.,24.0,0.,24.0
1979-08-03 13:30:33.040 ,6,1,28.,24.0,0.,24.0,0.,24.0,0.,24.0
1979-08-03 13:30:57.040 ,6,0,0.,24.0,0.,24.0,1.,24.0,0.,24.0
1979-08-03 13:31:21.040 ,5,1,0.,24.0,0.,24.0,0.,24.0,0.,24.0
1979-08-03 13:31:45.040 ,5,0,0.,24.0,0.,24.0,3.,24.0,0.,24.0
1979-08-03 13:32:09.040 ,4,1,0.,24.0,0.,24.0,1.,24.0,0.,24.0
1979-08-03 13:32:33.040 ,4,0,0.,24.0,0.,24.0,1.,24.0,0.,24.0
1979-08-03 13:32:57.040 ,3,1,0.,24.0,0.,24.0,0.,24.0,0.,24.0
1979-08-03 13:33:21.040 ,3,0,0.,24.0,0.,24.0,0.,24.0,0.,24.0
1979-08-03 13:33:45.040 ,2,1,0.,24.0,0.,24.0,0.,24.0,0.,24.0
1979-08-03 13:34:09.040 ,2,0,0.,24.0,0.,24.0,0.,24.0,0.,24.0
1979-08-03 13:34:33.040 ,1,1,0.,24.0,0.,24.0,1.,24.0,0.,24.0
1979-08-03 13:34:57.040 ,1,0,0.,24.0,0.,24.0,1.,24.0,0.,24.0
1979-08-03 13:35:21.040 ,0,1,0.,24.0,0.,24.0,1.,24.0,0.,24.0
1979-08-03 13:35:45.040 ,0,0,0.,24.0,0.,24.0,1.,24.0,0.,24.0
1979-08-03 13:36:09.040 ,0,1,0.,24.0,0.,24.0,0.,24.0,0.,24.0
1979-08-03 13:36:33.040 ,0,0,0.,24.0,0.,24.0,0.,24.0,0.,24.0
1979-08-03 13:36:57.040 ,1,1,0.,24.0,0.,24.0,2.,24.0,0.,24.0
1979-08-03 13:37:21.040 ,1,0,1.,24.0,0.,24.0,0.,24.0,0.,24.0
1979-08-03 13:37:45.040 ,2,1,0.,24.0,0.,24.0,1.,24.0,0.,24.0
1979-08-03 13:38:09.040 ,2,0,0.,24.0,0.,24.0,2.,24.0,0.,24.0
1979-08-03 13:38:33.040 ,3,1,0.,24.0,0.,24.0,0.,24.0,0.,24.0
1979-08-03 13:38:57.040 ,3,0,0.,24.0,0.,24.0,0.,24.0,0.,24.0
1979-08-03 13:39:21.040 ,4,1,0.,24.0,0.,24.0,0.,24.0,0.,24.0
1979-08-03 13:39:45.040 ,4,0,0.,24.0,0.,24.0,2.,24.0,0.,24.0
1979-08-03 13:40:09.040 ,5,1,0.,24.0,0.,24.0,0.,24.0,0.,24.0
1979-08-03 13:40:33.040 ,5,0,0.,24.0,0.,24.0,2.,24.0,0.,24.0
1979-08-03 13:40:57.040 ,6,1,0.,24.0,0.,24.0,0.,24.0,0.,24.0
1979-08-03 13:41:21.040 ,6,0,0.,24.0,0.,24.0,2.,24.0,0.,24.0
1979-08-03 13:41:45.040 ,7,1,8.,24.0,0.,24.0,1.,24.0,0.,24.0
1979-08-03 13:42:09.040 ,7,0,27.,24.0,1.,24.0,0.,24.0,0.,24.0
1979-08-03 13:42:33.040 ,7,1,30.,24.0,0.,24.0,0.,24.0,0.,24.0
1979-08-03 13:42:57.040 ,7,0,28.,24.0,0.,24.0,0.,24.0,0.,24.0
1979-08-03 13:43:21.040 ,6,1,21.,24.0,0.,24.0,2.,24.0,0.,24.0
1979-08-03 13:43:45.040 ,6,0,0.,24.0,1.,24.0,0.,24.0,0.,24.0
1979-08-03 13:44:09.040 ,5,1,0.,24.0,0.,24.0,2.,24.0,0.,24.0
1979-08-03 13:44:33.040 ,5,0,0.,24.0,0.,24.0,1.,24.0,0.,24.0
1979-08-03 13:44:57.040 ,4,1,0.,24.0,0.,24.0,0.,24.0,0.,24.0
1979-08-03 13:45:21.040 ,4,0,0.,24.0,0.,24.0,1.,24.0,0.,24.0
1979-08-03 13:45:45.040 ,3,1,1.,24.0,0.,24.0,0.,24.0,0.,24.0
1979-08-03 13:46:09.040 ,3,0,0.,24.0,0.,24.0,0.,24.0,0.,24.0
1979-08-03 13:46:33.040 ,2,1,0.,24.0,1.,24.0,0.,24.0,0.,24.0
1979-08-03 13:46:57.040 ,2,0,0.,24.0,0.,24.0,0.,24.0,0.,24.0
1979-08-03 13:47:21.040 ,1,1,0.,24.0,0.,24.0,0.,24.0,0.,24.0
1979-08-03 13:47:45.040 ,1,0,0.,24.0,0.,24.0,0.,24.0,0.,24.0
1979-08-03 13:48:09.040 ,0,1,0.,24.0,0.,24.0,0.,24.0,0.,24.0
1979-08-03 13:48:33.040 ,0,0,0.,24.0,0.,24.0,0.,24.0,0.,24.0
1979-08-03 13:48:57.040 ,0,1,0.,24.0,0.,24.0,0.,24.0,0.,24.0
1979-08-03 13:49:21.040 ,0,0,1.,24.0,0.,24.0,0.,24.0,0.,24.0
1979-08-03 13:49:45.040 ,1,1,0.,24.0,0.,24.0,0.,24.0,0.,24.0
1979-08-03 13:50:09.040 ,1,0,0.,24.0,0.,24.0,0.,24.0,0.,24.0
1979-08-03 13:50:33.040 ,2,1,0.,24.0,0.,24.0,0.,24.0,0.,24.0
1979-08-03 13:50:57.040 ,2,0,0.,24.0,0.,24.0,0.,24.0,0.,24.0
1979-08-03 13:51:21.040 ,3,1,0.,24.0,0.,24.0,1.,24.0,0.,24.0
1979-08-03 13:51:45.040 ,3,0,0.,24.0,0.,24.0,0.,24.0,0.,24.0
1979-08-03 13:52:09.040 ,4,1,0.,24.0,0.,24.0,0.,24.0,0.,24.0
1979-08-03 13:52:33.040 ,4,0,0.,24.0,0.,24.0,0.,24.0,0.,24.0
1979-08-03 13:52:57.040 ,5,1,1.,24.0,0.,24.0,2.,24.0,0.,24.0
1979-08-03 13:53:21.040 ,5,0,1.,24.0,0.,24.0,1.,24.0,0.,24.0
1979-08-03 13:53:45.040 ,6,1,0.,24.0,0.,24.0,1.,24.0,0.,24.0
1979-08-03 13:54:09.040 ,6,0,0.,24.0,0.,24.0,1.,24.0,0.,24.0
1979-08-03 13:54:33.040 ,7,0,7.,24.0,0.,24.0,0.,24.0,0.,24.0
1979-08-03 13:54:57.040 ,7,0,32.,24.0,0.,24.0,2.,24.0,0.,24.0
1979-08-03 13:55:21.040 ,5,1,19.,24.0,0.,24.0,1.,24.0,0.,24.0
1979-08-03 13:55:45.040 ,1,1,0.,24.0,0.,24.0,0.,24.0,0.,24.0
1979-08-03 13:56:09.040 ,2,1,0.,24.0,0.,24.0,0.,24.0,0.,24.0
1979-08-03 13:56:33.040 ,6,1,0.,24.0,0.,24.0,1.,24.0,0.,24.0
1979-08-03 13:56:57.040 ,5,1,22.,24.0,0.,24.0,0.,24.0,0.,24.0
1979-08-03 13:57:21.040 ,1,1,0.,24.0,0.,24.0,1.,24.0,0.,24.0
1979-08-03 13:57:45.040 ,2,1,0.,24.0,0.,24.0,0.,24.0,0.,24.0
1979-08-03 13:58:09.040 ,6,1,0.,24.0,0.,24.0,1.,24.0,0.,24.0
1979-08-03 13:58:33.040 ,5,1,12.,24.0,0.,24.0,1.,24.0,0.,24.0
1979-08-03 13:58:57.040 ,1,1,0.,24.0,0.,24.0,1.,24.0,0.,24.0
1979-08-03 13:59:21.040 ,2,1,0.,24.0,0.,24.0,0.,24.0,0.,24.0
1979-08-03 13:59:45.040 ,6,1,0.,24.0,0.,24.0,3.,24.0,0.,24.0
1979-08-03 14:00:09.040 ,5,1,19.,24.0,0.,24.0,1.,24.0,0.,24.0
1979-08-03 14:00:33.040 ,1,1,1.,24.0,0.,24.0,0.,24.0,0.,24.0
1979-08-03 14:00:57.040 ,2,1,0.,24.0,0.,24.0,0.,24.0,0.,24.0
1979-08-03 14:01:21.040 ,0,0,1.,24.0,0.,24.0,1.,24.0,0.,24.0
1979-08-03 14:01:42.040 ,7,1,,0,,0,,0,,0
1979-08-03 14:01:45.040 ,5,1,14.,24.0,0.,24.0,0.,24.0,0.,24.0
1979-08-03 14:02:09.040 ,1,1,0.,24.0,0.,24.0,0.,24.0,0.,24.0
1979-08-03 14:02:33.040 ,2,1,0.,24.0,1.,24.0,0.,24.0,0.,24.0
1979-08-03 14:02:57.040 ,6,1,0.,24.0,0.,24.0,0.,24.0,0.,24.0
1979-08-03 14:03:21.040 ,5,1,20.,24.0,0.,24.0,0.,24.0,0.,24.0
1979-08-03 14:03:45.040 ,1,1,0.,24.0,0.,24.0,1.,24.0,0.,24.0
1979-08-03 14:04:09.040 ,2,1,0.,24.0,0.,24.0,1.,24.0,0.,24.0
1979-08-03 14:04:33.040 ,6,1,0.,24.0,0.,24.0,0.,24.0,0.,24.0
1979-08-03 14:04:57.040 ,5,1,10.,24.0,0.,24.0,3.,24.0,0.,24.0
1979-08-03 14:05:21.040 ,1,1,1.,24.0,0.,24.0,0.,24.0,0.,24.0
1979-08-03 14:05:45.040 ,0,0,0.,24.0,0.,24.0,0.,24.0,0.,24.0
1979-08-03 14:06:09.040 ,0,0,0.,24.0,0.,24.0,0.,24.0,0.,24.0
1979-08-03 14:06:33.040 ,5,1,17.,24.0,0.,24.0,2.,24.0,0.,24.0
1979-08-03 14:06:57.040 ,5,0,0.,24.0,0.,24.0,1.,24.0,0.,24.0
1979-08-03 14:07:21.040 ,4,1,1.,24.0,0.,24.0,0.,24.0,0.,24.0
1979-08-03 14:07:45.040 ,4,0,0.,24.0,0.,24.0,0.,24.0,0.,24.0
1979-08-03 14:08:09.040 ,3,1,0.,24.0,0.,24.0,2.,24.0,0.,24.0
1979-08-03 14:08:33.040 ,3,0,0.,24.0,1.,24.0,1.,24.0,0.,24.0
1979-08-03 14:08:57.040 ,2,1,0.,24.0,0.,24.0,3.,24.0,0.,24.0
1979-08-03 14:09:21.040 ,2,0,0.,24.0,0.,24.0,0.,24.0,0.,24.0
1979-08-03 14:09:45.040 ,1,1,1.,24.0,0.,24.0,3.,24.0,0.,24.0
1979-08-03 14:10:09.040 ,1,0,1.,24.0,0.,24.0,1.,24.0,0.,24.0
1979-08-03 14:10:33.040 ,0,1,1.,24.0,0.,24.0,1.,24.0,0.,24.0
1979-08-03 14:10:57.040 ,0,0,1.,24.0,0.,24.0,0.,24.0,0.,24.0
1979-08-03 14:11:21.040 ,0,1,0.,24.0,0.,24.0,3.,24.0,0.,24.0
1979-08-03 14:11:45.040 ,0,0,1.,24.0,0.,24.0,1.,24.0,0.,24.0
1979-08-03 14:12:09.040 ,1,1,0.,24.0,1.,24.0,0.,24.0,0.,24.0
1979-08-03 14:12:33.040 ,1,0,0.,24.0,0.,24.0,0.,24.0,0.,24.0
1979-08-03 14:12:57.040 ,2,1,0.,24.0,0.,24.0,0.,24.0,0.,24.0
1979-08-03 14:13:21.040 ,2,0,0.,24.0,0.,24.0,0.,24.0,0.,24.0
1979-08-03 14:13:45.040 ,3,1,1.,24.0,0.,24.0,0.,24.0,0.,24.0
1979-08-03 14:14:09.040 ,3,0,0.,24.0,0.,24.0,0.,24.0,0.,24.0
1979-08-03 14:14:33.030 ,4,1,0.,24.0,0.,24.0,1.,24.0,0.,24.0
1979-08-03 14:14:57.030 ,4,0,0.,24.0,0.,24.0,1.,24.0,0.,24.0
1979-08-03 14:15:21.030 ,5,1,0.,24.0,0.,24.0,2.,24.0,0.,24.0
1979-08-03 14:15:45.030 ,5,0,0.,24.0,0.,24.0,0.,24.0,0.,24.0
1979-08-03 14:16:09.030 ,6,1,0.,24.0,0.,24.0,1.,24.0,0.,24.0
1979-08-03 14:16:33.030 ,6,0,1.,24.0,0.,24.0,2.,24.0,0.,24.0
1979-08-03 14:16:57.030 ,7,1,6.,24.0,0.,24.0,0.,24.0,0.,24.0
1979-08-03 14:17:21.040 ,7,0,29.,24.0,0.,24.0,0.,24.0,0.,24.0
1979-08-03 14:17:45.040 ,7,1,27.,24.0,0.,24.0,1.,24.0,0.,24.0
1979-08-03 14:18:09.040 ,7,0,33.,24.0,0.,24.0,0.,24.0,0.,24.0
1979-08-03 14:18:33.040 ,6,1,19.,24.0,0.,24.0,0.,24.0,0.,24.0
1979-08-03 14:18:57.040 ,6,0,0.,24.0,0.,24.0,1.,24.0,0.,24.0
1979-08-03 14:19:21.040 ,5,1,0.,24.0,0.,24.0,2.,24.0,0.,24.0
1979-08-03 14:19:45.040 ,5,0,0.,24.0,0.,24.0,1.,24.0,0.,24.0
1979-08-03 14:20:09.040 ,4,1,0.,24.0,0.,24.0,2.,24.0,0.,24.0
1979-08-03 14:20:33.040 ,4,0,0.,24.0,0.,24.0,1.,24.0,0.,24.0
1979-08-03 14:20:57.040 ,3,1,1.,24.0,0.,24.0,1.,24.0,0.,24.0
1979-08-03 14:21:21.040 ,3,0,0.,24.0,0.,24.0,0.,24.0,0.,24.0
1979-08-03 14:21:45.040 ,2,1,0.,24.0,0.,24.0,0.,24.0,0.,24.0
1979-08-03 14:22:09.040 ,2,0,1.,24.0,0.,24.0,1.,24.0,0.,24.0
1979-08-03 14:22:33.040 ,1,1,2.,24.0,0.,24.0,0.,24.0,0.,24.0
1979-08-03 14:22:57.040 ,1,0,1.,24.0,0.,24.0,0.,24.0,0.,24.0
1979-08-03 14:23:21.040 ,0,1,1.,24.0,0.,24.0,1.,24.0,0.,24.0
1979-08-03 14:23:45.040 ,0,0,1.,24.0,0.,24.0,0.,24.0,0.,24.0
1979-08-03 14:24:09.040 ,0,1,0.,24.0,1.,24.0,3.,24.0,0.,24.0
1979-08-03 14:24:33.040 ,0,0,0.,24.0,0.,24.0,0.,24.0,0.,24.0
1979-08-03 14:24:57.040 ,1,1,0.,24.0,0.,24.0,1.,24.0,0.,24.0
1979-08-03 14:25:21.040 ,1,0,2.,24.0,0.,24.0,1.,24.0,0.,24.0
1979-08-03 14:25:45.040 ,2,1,0.,24.0,0.,24.0,1.,24.0,0.,24.0
1979-08-03 14:26:09.040 ,2,0,0.,24.0,0.,24.0,0.,24.0,0.,24.0
1979-08-03 14:26:33.040 ,3,1,0.,24.0,0.,24.0,0.,24.0,0.,24.0
1979-08-03 14:26:57.040 ,3,0,0.,24.0,0.,24.0,2.,24.0,0.,24.0
1979-08-03 14:27:21.040 ,4,1,0.,24.0,0.,24.0,0.,24.0,0.,24.0
1979-08-03 14:27:45.040 ,4,0,0.,24.0,0.,24.0,0.,24.0,0.,24.0
1979-08-03 14:28:09.040 ,5,1,0.,24.0,0.,24.0,0.,24.0,0.,24.0
1979-08-03 14:28:33.040 ,5,0,0.,24.0,0.,24.0,0.,24.0,0.,24.0
1979-08-03 14:28:57.040 ,6,1,0.,24.0,0.,24.0,3.,24.0,0.,24.0
1979-08-03 14:29:21.040 ,6,0,0.,24.0,0.,24.0,2.,24.0,0.,24.0
1979-08-03 14:29:45.040 ,7,1,8.,24.0,0.,24.0,1.,24.0,0.,24.0
1979-08-03 14:30:09.040 ,7,0,35.,24.0,0.,24.0,0.,24.0,0.,24.0
1979-08-03 14:30:33.040 ,7,1,28.,24.0,0.,24.0,1.,24.0,0.,24.0
1979-08-03 14:30:57.040 ,7,0,21.,24.0,0.,24.0,0.,24.0,0.,24.0
1979-08-03 14:31:21.040 ,6,1,24.,24.0,0.,24.0,0.,24.0,0.,24.0
1979-08-03 14:31:45.040 ,6,0,0.,24.0,1.,24.0,0.,24.0,0.,24.0
1979-08-03 14:32:09.040 ,5,1,0.,24.0,0.,24.0,2.,24.0,0.,24.0
1979-08-03 14:32:33.040 ,5,0,0.,24.0,0.,24.0,0.,24.0,0.,24.0
1979-08-03 14:32:57.040 ,4,1,1.,24.0,0.,24.0,1.,24.0,0.,24.0
1979-08-03 14:33:21.040 ,4,0,0.,24.0,0.,24.0,0.,24.0,0.,24.0
1979-08-03 14:33:45.030 ,3,1,0.,24.0,0.,24.0,2.,24.0,0.,24.0
1979-08-03 14:34:09.030 ,3,0,0.,24.0,0.,24.0,0.,24.0,0.,24.0